Wind_Speed
10 10 12 5 4 5 7 7 2 6 3 7 6 4 11 14 16 15 17 17 17 17 17 19 19 18 17 19 19 19 19 19 18 17 15 14 14 12 12 12 13 12 12 13
10 12 4 7 5 9 9 10 8 6 8 5 11 10 10 18 16 16 16 18 19 19 19 21 21 20 20 20 21 20 19 19 19 17 15 15 14 13 14 14 14 15 14 13
15 11 9 2 11 10 12 11 12 6 8 13 14 15 10 10 18 14 16 18 19 19 20 21 22 22 21 21 22 22 21 20 20 18 16 15 15 18 16 16 16 16 16 15
10 10 3 5 10 7 13 11 4 10 12 10 3 3 9 14 14 15 16 18 19 18 19 21 22 23 23 23 22 22 22 23 21 23 19 20 17 16 16 17 16 16 18 17
5 3 6 9 4 3 11 8 8 12 13 14 14 8 7 6 10 16 18 20 17 19 19 20 23 24 24 24 25 24 25 25 23 23 22 20 20 16 16 16 17 19 18 19
5 2 4 8 4 7 11 13 14 14 13 12 15 14 12 10 9 16 14 8 13 13 15 18 20 22 24 25 26 26 29 30 28 26 26 25 22 21 17 18 18 16 19 18
6 8 5 5 8 9 11 14 9 9 10 11 13 13 11 16 18 14 13 15 12 6 3 15 18 21 24 26 28 28 32 34 31 30 28 29 27 25 21 19 21 20 19 20
8 8 9 5 5 10 8 10 8 7 6 6 9 5 1 19 17 15 13 11 9 11 11 10 9 19 23 26 29 31 33 37 33 32 33 31 31 25 25 24 20 22 21 20
3 4 6 1 4 6 2 7 9 9 14 9 10 7 7 14 13 8 11 8 8 9 11 11 10 9 11 22 29 33 35 37 38 35 37 37 33 31 28 27 26 22 23 20
5 9 7 7 5 11 10 10 8 8 8 12 9 9 9 19 15 7 5 8 10 11 11 12 12 12 14 17 23 33 37 39 35 35 38 38 39 35 34 32 30 27 24 26
8 7 6 3 11 10 7 10 10 14 11 12 10 2 13 13 10 4 5 13 14 15 15 15 16 17 18 19 24 33 35 38 39 38 38 38 37 37 35 36 34 31 31 25
5 8 10 10 9 4 11 14 15 11 11 11 12 13 14 11 4 7 10 13 16 15 17 18 18 19 22 25 23 17 29 35 39 39 39 39 37 36 33 36 36 34 32 32
8 6 8 14 12 9 10 12 14 14 14 17 13 8 6 12 8 6 10 19 21 19 19 19 20 20 22 24 23 18 19 29 36 38 38 38 37 36 37 34 35 36 35 35
5 10 11 13 17 13 10 10 11 12 12 14 16 18 16 7 14 18 20 17 20 20 20 21 21 21 21 22 23 20 17 23 30 36 35 38 40 38 37 36 35 36 38 38
6 11 12 14 15 17 17 18 17 17 18 18 21 22 21 22 21 24 17 14 16 19 22 23 21 22 23 22 23 20 16 17 25 29 36 36 38 39 38 37 39 37 37 38
9 9 9 14 15 17 18 17 19 21 21 22 24 25 21 25 20 19 18 21 24 21 23 21 22 24 24 23 24 25 18 18 19 25 27 34 33 35 37 38 37 40 39 39
9 9 10 14 13 8 11 16 15 15 16 19 21 18 18 18 22 23 24 27 28 22 23 20 23 24 24 24 25 27 23 17 20 24 24 25 31 34 38 38 37 36 39 39
7 7 9 11 11 15 7 6 9 13 15 16 19 17 16 16 21 23 25 30 24 19 18 24 26 26 27 27 25 24 24 22 19 26 26 29 25 28 34 34 36 38 37 38
8 8 8 10 11 13 13 5 7 11 17 19 21 19 20 19 23 25 25 12 19 22 25 27 27 29 29 30 28 24 24 23 22 23 30 34 28 24 32 35 33 34 37 37
7 4 8 10 11 13 11 14 9 9 17 15 18 20 24 25 16 16 24 30 31 29 28 29 28 29 31 34 29 26 24 24 23 23 28 27 36 39 37 33 29 32 34 33
7 9 11 10 11 9 10 9 9 11 12 28 28 29 30 22 31 41 38 35 31 31 30 28 30 30 30 29 28 27 25 23 24 25 28 29 29 31 35 35 33 33 30 30
8 8 8 9 12 8 12 16 11 17 26 26 30 32 38 37 39 36 34 34 34 30 29 27 27 30 29 25 27 27 25 25 25 21 20 24 29 32 29 27 26 26 29 30
7 4 7 7 12 21 13 17 20 18 22 26 34 38 36 36 34 34 33 33 27 24 23 18 22 27 27 26 27 31 24 26 24 24 18 20 25 27 25 22 23 26 26 26
7 10 6 9 13 16 17 14 13 15 23 27 26 29 29 29 32 34 32 27 21 10 10 14 17 20 22 20 22 25 20 11 14 17 21 25 19 15 17 19 18 19 17 15
9 5 6 13 12 14 16 15 15 16 16 16 22 23 24 26 26 19 10 4 3 5 9 11 13 15 15 15 17 18 18 17 12 12 12 12 14 13 14 15 16 10 8 10
6 5 8 10 18 16 17 16 7 10 10 14 15 17 18 24 18 13 12 11 8 11 14 16 14 16 15 12 13 3 15 18 14 15 18 19 17 16 13 10 10 9 8 8
Wind_Direction
211 261 231 266 67 326 323 313 80 123 158 292 5 255 176 186 202 188 189 189 195 198 191 189 190 189 189 189 190 189 186 189 191 191 194 194 199 204 207 208 204 216 194 203
236 240 317 50 313 295 287 283 271 129 161 242 286 291 185 165 202 197 191 188 197 197 194 193 193 195 194 191 192 192 191 192 190 193 194 202 199 208 210 212 213 208 204 205
250 37 53 252 267 272 266 272 300 329 329 270 243 260 188 176 180 195 200 198 198 198 197 196 197 199 199 199 196 197 194 197 196 190 198 202 205 203 205 211 217 219 208 204
235 62 302 271 260 285 277 25 335 289 278 278 195 283 213 169 185 182 204 194 200 202 201 198 202 205 206 206 206 202 201 198 204 194 200 203 204 207 213 211 217 218 209 208
78 253 237 249 302 13 284 11 292 285 278 270 259 249 281 163 205 187 196 185 197 195 205 207 204 209 212 211 210 209 209 204 202 208 189 209 203 210 208 212 213 212 225 210
81 329 312 354 330 264 310 280 263 249 253 256 247 256 254 205 176 88 84 159 166 193 206 214 216 213 215 215 214 214 215 216 209 212 207 201 212 202 209 209 211 217 213 217
185 190 114 279 265 204 246 261 261 232 215 244 237 216 230 53 85 87 84 63 44 10 301 214 216 222 219 220 219 217 214 224 215 210 213 212 208 209 206 213 211 212 213 216
218 183 189 110 328 339 311 315 301 313 286 350 87 228 282 99 99 100 91 83 50 27 27 356 333 218 224 227 225 223 218 217 220 214 216 220 217 212 210 215 211 212 215 219
283 197 137 200 298 282 82 249 4 301 271 264 273 140 151 118 103 97 94 75 38 15 15 12 358 330 307 233 229 228 223 216 221 216 219 221 224 215 213 212 219 215 216 216
43 281 160 124 269 235 267 345 267 213 274 270 252 226 223 176 135 101 66 36 11 359 353 352 345 342 323 286 255 228 226 222 220 218 220 222 226 227 215 214 215 219 218 215
319 249 141 233 217 265 188 222 226 278 293 296 278 22 55 97 101 90 11 10 347 344 343 340 335 333 328 317 300 232 225 224 220 221 219 219 223 224 227 218 219 217 215 221
45 303 270 267 106 289 278 282 284 275 239 246 269 273 130 117 117 40 2 345 337 337 337 338 334 334 332 335 322 250 225 224 221 219 221 221 222 222 220 225 218 219 219 217
12 262 277 232 218 190 253 254 254 267 276 268 282 273 101 122 207 4 354 327 324 330 335 335 340 336 337 335 328 314 248 229 223 219 222 224 222 221 224 224 221 219 220 219
309 272 270 287 326 325 290 252 268 273 275 276 257 264 283 256 333 340 328 326 315 320 327 330 331 335 332 331 331 318 291 243 230 221 223 224 225 223 223 223 225 222 221 224
260 282 294 291 293 289 284 281 278 266 267 273 283 295 304 314 316 311 315 314 308 312 319 322 326 329 330 327 328 321 300 267 245 235 223 225 228 228 227 225 223 226 228 227
249 276 287 282 276 269 271 276 273 268 271 274 277 277 283 285 300 315 315 312 309 304 309 320 321 321 323 324 323 322 306 282 263 244 239 226 225 229 230 228 227 225 226 232
256 280 279 278 290 300 282 261 265 270 268 269 272 291 333 339 333 324 317 315 306 307 301 317 318 314 318 318 316 313 309 283 276 252 242 233 229 230 233 230 228 227 226 228
247 253 278 274 282 269 312 12 297 284 290 304 313 314 328 324 314 309 305 289 302 316 318 309 307 311 308 308 311 304 302 282 268 248 231 229 235 237 239 236 232 229 229 230
266 277 273 275 266 290 310 39 9 347 312 313 297 312 322 310 302 295 285 338 326 316 304 302 302 306 306 305 302 302 296 295 270 255 251 237 226 229 245 235 237 235 232 231
257 232 269 285 301 289 299 59 34 334 294 19 340 315 308 307 292 289 305 311 308 305 303 299 301 303 304 306 298 292 291 291 274 254 252 255 239 238 248 238 233 236 240 242
226 227 260 264 272 285 47 22 327 284 333 330 320 313 307 302 296 297 293 288 291 295 296 296 298 299 302 308 298 289 287 282 276 262 240 236 234 232 234 240 239 238 241 242
278 289 276 276 269 289 352 318 319 318 308 315 312 311 305 300 296 296 298 292 283 289 295 291 294 297 305 303 289 283 282 279 278 269 241 233 230 231 229 230 237 240 233 240
255 259 332 318 321 326 326 327 323 350 327 313 308 305 299 295 290 292 291 289 295 294 289 296 299 302 304 295 284 285 280 285 274 263 252 224 224 224 227 230 233 239 247 237
228 228 263 293 288 312 306 334 329 335 321 319 318 313 306 300 296 296 292 286 289 293 317 312 313 312 305 298 290 276 253 256 246 252 234 230 236 221 220 219 213 216 225 236
297 310 290 272 269 318 312 340 336 333 327 336 339 339 343 335 320 311 321 332 343 353 359 345 330 320 326 322 293 268 234 210 229 190 162 158 169 165 167 169 163 179 196 226
254 248 280 331 328 324 318 324 339 338 334 342 342 348 358 11 18 19 24 46 44 40 40 20 3 348 357 28 51 265 214 201 203 204 159 156 145 141 138 153 159 163 189 206
Height
1504 1501 1497 1492 1495 1499 1496 1495 1495 1503 1508 1506 1498 1499 1494 1505 1507 1508 1512 1519 1523 1527 1531 1536 1540 1544 1547 1550 1553 1556 1558 1562 1565 1568 1571 1575 1577 1579 1582 1584 1585 1586 1588 1589
1501 1504 1489 1497 1502 1501 1497 1497 1494 1492 1503 1507 1503 1492 1485 1493 1501 1501 1507 1512 1518 1523 1527 1532 1537 1541 1545 1547 1550 1553 1556 1558 1561 1565 1569 1572 1574 1577 1579 1581 1583 1585 1586 1588
1499 1498 1499 1504 1503 1503 1497 1497 1495 1500 1495 1493 1492 1492 1485 1486 1494 1499 1503 1507 1512 1517 1523 1529 1534 1538 1542 1545 1547 1550 1553 1556 1558 1562 1566 1569 1571 1573 1576 1578 1580 1581 1583 1585
1495 1502 1504 1507 1506 1501 1504 1496 1502 1504 1505 1509 1485 1509 1484 1484 1486 1493 1498 1502 1508 1513 1518 1523 1529 1534 1538 1542 1545 1548 1549 1552 1555 1557 1562 1565 1568 1570 1572 1575 1577 1579 1580 1583
1502 1506 1507 1508 1502 1508 1505 1503 1506 1504 1503 1498 1492 1499 1480 1475 1479 1481 1484 1491 1499 1506 1513 1518 1522 1528 1533 1537 1541 1543 1545 1548 1552 1553 1557 1560 1563 1567 1569 1571 1574 1576 1577 1579
1502 1511 1509 1506 1509 1510 1508 1507 1500 1496 1497 1509 1490 1491 1481 1472 1472 1476 1484 1492 1494 1501 1507 1513 1518 1523 1528 1532 1535 1539 1540 1542 1545 1549 1552 1556 1559 1561 1565 1567 1569 1572 1575 1575
1509 1507 1511 1514 1509 1505 1507 1500 1507 1504 1502 1501 1467 1482 1480 1475 1477 1489 1492 1498 1503 1504 1503 1507 1512 1517 1522 1526 1530 1533 1535 1537 1541 1543 1546 1549 1553 1557 1559 1562 1566 1568 1570 1572
1509 1516 1509 1513 1512 1512 1510 1507 1509 1520 1498 1483 1474 1494 1479 1478 1489 1496 1500 1506 1511 1511 1509 1508 1507 1509 1515 1520 1524 1528 1529 1530 1535 1538 1541 1543 1547 1552 1555 1558 1561 1563 1566 1568
1508 1509 1512 1515 1516 1515 1509 1512 1495 1507 1492 1499 1480 1476 1479 1483 1493 1499 1503 1510 1515 1516 1515 1514 1512 1511 1511 1512 1516 1520 1524 1524 1526 1531 1534 1537 1540 1544 1548 1552 1555 1559 1561 1564
1513 1522 1507 1511 1518 1515 1515 1509 1511 1501 1522 1517 1486 1482 1481 1480 1492 1501 1506 1510 1515 1516 1516 1516 1515 1514 1513 1509 1507 1510 1515 1519 1522 1526 1528 1530 1533 1537 1542 1546 1549 1552 1556 1558
1515 1517 1513 1517 1512 1508 1510 1513 1511 1505 1499 1508 1505 1488 1471 1485 1496 1504 1508 1512 1516 1517 1517 1516 1515 1513 1511 1506 1501 1498 1505 1511 1515 1519 1523 1526 1528 1531 1535 1539 1543 1546 1549 1552
1521 1516 1514 1506 1503 1514 1514 1513 1506 1508 1511 1498 1498 1493 1476 1491 1497 1502 1508 1515 1518 1517 1516 1514 1512 1511 1507 1501 1494 1492 1497 1503 1508 1512 1518 1520 1524 1527 1529 1530 1535 1539 1543 1546
1526 1518 1520 1511 1505 1510 1516 1509 1507 1504 1500 1508 1511 1494 1480 1491 1498 1500 1508 1513 1515 1515 1513 1513 1510 1508 1505 1502 1496 1491 1494 1497 1501 1505 1510 1515 1518 1520 1523 1525 1527 1531 1535 1538
1538 1525 1525 1524 1511 1509 1516 1511 1508 1511 1512 1504 1497 1493 1485 1487 1493 1500 1507 1511 1514 1514 1512 1510 1510 1508 1506 1503 1497 1494 1492 1493 1496 1498 1502 1506 1510 1512 1516 1520 1522 1524 1527 1531
1534 1531 1524 1519 1517 1515 1514 1513 1510 1512 1509 1514 1503 1501 1497 1497 1500 1503 1506 1510 1512 1512 1512 1509 1508 1507 1504 1502 1497 1493 1490 1491 1491 1492 1494 1498 1503 1508 1511 1513 1515 1517 1520 1523
1529 1532 1531 1529 1520 1517 1517 1513 1512 1511 1510 1510 1507 1506 1503 1502 1501 1503 1507 1510 1510 1509 1509 1507 1508 1506 1502 1498 1495 1490 1486 1486 1485 1486 1488 1491 1496 1500 1504 1507 1509 1510 1513 1515
1528 1529 1531 1528 1516 1514 1525 1511 1507 1505 1505 1505 1506 1499 1500 1505 1510 1513 1513 1512 1509 1506 1506 1505 1505 1503 1499 1496 1493 1488 1483 1480 1479 1481 1481 1484 1486 1491 1495 1499 1502 1504 1505 1508
1530 1534 1532 1529 1523 1534 1506 1506 1509 1511 1509 1507 1505 1505 1508 1513 1516 1516 1516 1511 1506 1503 1502 1504 1502 1499 1495 1492 1488 1486 1481 1477 1474 1474 1476 1477 1479 1484 1491 1494 1494 1496 1498 1499
1528 1530 1526 1527 1519 1509 1507 1509 1518 1522 1521 1518 1514 1512 1513 1516 1515 1514 1509 1506 1506 1505 1503 1500 1497 1493 1489 1486 1482 1480 1476 1473 1470 1470 1469 1471 1471 1471 1484 1485 1488 1490 1491 1492
1528 1533 1535 1525 1532 1533 1511 1515 1521 1525 1523 1520 1521 1519 1517 1516 1510 1503 1504 1502 1501 1500 1498 1494 1491 1488 1483 1479 1475 1472 1470 1467 1464 1462 1463 1463 1464 1465 1474 1475 1477 1481 1485 1487
1526 1530 1527 1519 1520 1514 1516 1522 1523 1531 1521 1520 1521 1518 1515 1513 1511 1503 1502 1499 1498 1495 1492 1488 1485 1481 1477 1472 1469 1464 1463 1461 1459 1456 1457 1461 1463 1467 1470 1469 1472 1473 1475 1479
1529 1525 1517 1512 1515 1522 1525 1524 1527 1522 1520 1520 1520 1518 1513 1509 1503 1499 1496 1492 1489 1486 1485 1483 1479 1474 1470 1467 1462 1456 1454 1452 1450 1451 1452 1453 1457 1461 1463 1465 1463 1466 1470 1466
1532 1525 1526 1529 1520 1521 1523 1522 1523 1524 1524 1522 1519 1516 1510 1504 1498 1494 1490 1486 1481 1480 1480 1476 1473 1468 1463 1459 1454 1448 1447 1445 1443 1445 1446 1447 1448 1450 1453 1456 1458 1460 1462 1464
1522 1524 1526 1527 1521 1520 1520 1521 1524 1524 1524 1521 1517 1512 1506 1500 1494 1488 1483 1479 1477 1475 1474 1472 1468 1462 1455 1453 1447 1442 1442 1441 1439 1438 1439 1442 1443 1445 1447 1448 1452 1455 1458 1461
1521 1523 1525 1522 1520 1521 1518 1520 1522 1523 1522 1518 1514 1511 1505 1497 1491 1485 1480 1475 1473 1472 1470 1468 1464 1458 1452 1448 1441 1437 1435 1437 1438 1436 1437 1438 1440 1441 1443 1447 1451 1454 1457 1465
1516 1516 1518 1516 1517 1519 1518 1520 1521 1521 1519 1517 1515 1510 1506 1500 1490 1484 1480 1474 1474 1471 1467 1466 1462 1457 1452 1446 1440 1435 1432 1434 1435 1437 1436 1439 1441 1445 1447 1450 1453 1456 1461 1463